Monticello, AR

1:30 PM CDT on October 23, 2019 (GMT -0500)
Monticello Municipal-Ellis

Weather History for KLLQ - September, 2019

Change the Weather History Date:

Friday, September 20, 2019

  Actual Average Record
Temperature  
Mean Temperature 78 °F -  
Max Temperature 87 °F 83 °F 104 °F (2005)
Min Temperature 71 °F 61 °F 40 °F (1961)
Cooling Degree Days 12    
Growing Degree Days 28 (Base 50)    
Moisture  
Dew Point 71 °F    
Average Humidity 80    
Maximum Humidity 91    
Minimum Humidity 60    
Precipitation  
Precipitation 0.02 in - - ()
Sea Level Pressure  
Sea Level Pressure 30.09 in    
Wind  
Wind Speed 5 mph (SSE)    
Max Wind Speed 13 mph    
Max Gust Speed 18 mph    
Visibility 9 miles    
Events Rain , Thunderstorm    
Averages and records for this station are not official NWS values.
T = Trace of Precipitation, MM = Missing Value Source: NWS Daily Summary

Daily Weather History Graph

Daily Weather History Graph

Search for Another Location

Airport or City:

Astronomy

Sep. 20, 2019 Rise Set
Actual Time 6:53 AM CDT 7:06 PM CDT
Civil Twilight 6:28 AM CDT 7:31 PM CDT
Nautical Twilight 5:59 AM CDT 8:00 PM CDT
Astronomical Twilight 5:30 AM CDT 8:30 PM CDT
Moon 11:13 PM CDT (9/20) 12:42 PM CDT (9/20)
Length of Visible Light 13h 02m
Length of Day
12h 13m
Waning Gibbous, 65% of the Moon is Illuminated
Sep 20
Waning Gibbous
Sep 21
Last Quarter
Sep 28
New
Oct 5
First Quarter
Oct 13
Full

Hourly Weather History & Observations

Time (CDT) Temp. Heat Index Dew Point Humidity Pressure Visibility Wind Dir Wind Speed Gust Speed Precip Events Conditions
12:53 AM 73.9 °F - 70.0 °F 87% 30.01 in 10.0 mi ESE 4.6 mph - N/A   Clear
1:53 AM 73.0 °F - 69.1 °F 87% 30.02 in 10.0 mi East 3.5 mph - N/A   Clear
2:53 AM 73.0 °F - 70.0 °F 90% 30.03 in 10.0 mi Calm Calm - N/A   Clear
3:53 AM 71.1 °F - 68.0 °F 90% 30.04 in 10.0 mi East 3.5 mph - N/A   Clear
4:53 AM 72.0 °F - 69.1 °F 91% 30.05 in 10.0 mi SSE 4.6 mph - N/A   Clear
6:53 AM 72.0 °F - 69.1 °F 91% 30.08 in 10.0 mi SE 3.5 mph - N/A   Clear
7:53 AM 73.0 °F - 70.0 °F 90% 30.09 in 10.0 mi SE 4.6 mph - N/A   Partly Cloudy
8:53 AM 75.9 °F - 71.1 °F 85% 30.11 in 10.0 mi SE 5.8 mph - N/A   Mostly Cloudy
9:08 AM 75.9 °F - 71.1 °F 85% 30.12 in 10.0 mi SSE 6.9 mph - N/A   Overcast
9:53 AM 79.0 °F - 72.0 °F 79% 30.12 in 10.0 mi SSE 8.1 mph - N/A   Overcast
10:53 AM 82.9 °F 88.0 °F 72.0 °F 69% 30.12 in 10.0 mi SSE 11.5 mph 17.3 mph N/A   Mostly Cloudy
11:51 AM 84.2 °F 89.6 °F 71.6 °F 66% 30.13 in 10.0 mi SSE 8.1 mph 18.4 mph N/A   Mostly Cloudy
11:53 AM 84.9 °F 90.7 °F 72.0 °F 65% 30.12 in 10.0 mi SSE 10.4 mph - N/A   Mostly Cloudy
12:04 PM 84.9 °F 90.1 °F 71.1 °F 63% 30.12 in 10.0 mi SSE 11.5 mph - N/A   Mostly Cloudy
12:53 PM 82.0 °F 84.9 °F 68.0 °F 62% 30.12 in 10.0 mi WSW 12.7 mph - N/A   Mostly Cloudy
1:53 PM 82.0 °F 86.3 °F 71.1 °F 69% 30.10 in 10.0 mi Variable 6.9 mph - 0.00 in   Scattered Clouds
2:53 PM 82.9 °F 85.8 °F 68.0 °F 60% 30.08 in 10.0 mi South 3.5 mph - N/A   Clear
3:53 PM 82.0 °F 86.3 °F 71.1 °F 69% 30.06 in 7.0 mi WSW 9.2 mph 18.4 mph 0.00 in Rain Light Rain
3:57 PM 80.1 °F 84.2 °F 73.0 °F 79% 30.07 in 1.8 mi SW 6.9 mph 18.4 mph 0.00 in Rain Heavy Rain
4:11 PM 81.0 °F 86.7 °F 75.0 °F 82% 30.07 in 3.0 mi Calm Calm - N/A Rain Light Rain
4:30 PM 79.0 °F - 73.0 °F 82% 30.08 in 10.0 mi ENE 10.4 mph - N/A Thunderstorm Thunderstorm
4:50 PM 80.6 °F 84.6 °F 71.6 °F 74% 30.07 in 10.0 mi East 4.6 mph - N/A   Scattered Clouds
4:51 PM 81.0 °F 84.9 °F 71.1 °F 72% 30.06 in 10.0 mi East 4.6 mph - N/A   Scattered Clouds
5:51 PM 77.0 °F - 71.6 °F 83% 30.09 in 1.8 mi WSW 6.9 mph - 0.01 in Rain Heavy Rain
5:53 PM 77.0 °F - 72.0 °F 84% 30.08 in 1.5 mi WSW 5.8 mph - 0.01 in Rain Heavy Rain
6:00 PM 77.0 °F - 72.0 °F 84% 30.09 in 3.0 mi NNW 3.5 mph - 0.00 in Rain Light Rain
6:53 PM 75.9 °F - 73.0 °F 91% 30.08 in 10.0 mi Calm Calm - 0.01 in   Overcast
7:53 PM 77.0 °F - 73.0 °F 88% 30.09 in 10.0 mi Calm Calm - N/A   Overcast
8:53 PM 75.9 °F - 72.0 °F 87% 30.11 in 10.0 mi Variable 3.5 mph - N/A   Overcast
9:53 PM 75.0 °F - 71.1 °F 87% 30.13 in 10.0 mi WSW 4.6 mph - N/A   Mostly Cloudy
10:53 PM 75.0 °F - 72.0 °F 90% 30.13 in 9.0 mi Calm Calm - N/A   Overcast
11:53 PM 75.0 °F - 72.0 °F 90% 30.13 in 10.0 mi Calm Calm - N/A   Overcast